Simultaneous Nadir Overpasses (SNOs) Predictions

Prediction of SNOs between AQUA and NPP Satellite Orbit:

Table of predicted SNOs for the next 14.0 days since TLE Epoch: 7/20/2013
Index Date (AQUA) Time (AQUA) Lat,Lon (AQUA) SZA (AQUA ) Date (NPP) Time (NPP) Lat,Lon (NPP) SZA (NPP ) Distance(km) Time Diff (sec)
1 07/21/2013 22:38:36 -75.33,-102.53 101.54 07/21/2013 22:38:22 -75.32,-102.61 101.51 2.49 14
2 07/21/2013 23:27:40 76.39, 68.32 77.22 07/21/2013 23:28:43 76.38, 68.24 77.19 2.28 63
3 07/24/2013 14:05:43 74.86,-155.53 79.54 07/24/2013 14:04:44 74.86,-155.50 79.58 0.74 59
4 07/24/2013 14:54:47 -76.02, 15.39 101.81 07/24/2013 14:55:05 -76.03, 15.44 101.84 1.56 18
5 07/27/2013 06:21:59 75.34, -38.34 79.55 07/27/2013 06:21:33 75.35, -38.31 79.57 0.83 26
6 07/27/2013 07:11:05 -76.40, 132.48 101.68 07/27/2013 07:11:56 -76.41, 132.54 101.74 1.57 51
7 07/29/2013 21:49:13 -74.64, -91.93 99.05 07/29/2013 21:48:03 -74.65, -91.88 99.00 1.75 70
8 07/29/2013 22:38:13 75.91, 79.18 79.51 07/29/2013 22:38:20 75.92, 79.28 79.48 2.84 7
9 08/01/2013 14:05:32 -74.95, 24.75 98.76 08/01/2013 14:04:56 -74.95, 24.72 98.72 1.00 36




NCC Satellite Simultaneous Nadir Overpasses (SNOs) Prediction Service
